Regional Weather Roundup
Issued by NWS Raleigh/Durham, NC

Home | Current Version | Previous Version | Text Only | Print | Product List | Glossary On
Versions: 1 2 3 4 5 6 7 8 9 10 11 12 13 14 15 16 17 18 19 20 21 22 23 24 25 26 27 28 29 30 31 32 33 34 35 36 37 38 39 40 41 42 43 44 45 46 47 48 49 50
000
ASUS42 KRAH 090010
RWRRAH
NORTH CAROLINA WEATHER ROUNDUP
NATIONAL WEATHER SERVICE RALEIGH NC
700 PM EST THU DEC 08 2016

NOTE: "FAIR" INDICATES FEW OR NO CLOUDS BELOW 12,000 FEET WITH NO
SIGNIFICANT WEATHER AND/OR OBSTRUCTIONS TO VISIBILITY.

NCZ001-053-055-056-065-067-090100-
WESTERN NORTH CAROLINA

CITY           SKY/WX    TMP DP  RH WIND       PRES   REMARKS
ASHEVILLE      CLEAR     34  12  40 N12       30.22R WCI  25
JEFFERSON      CLEAR     29   8  41 NW9G16    30.13R WCI  20
MORGANTON      MOCLDY    41  10  28 NW12G17   30.27R
HICKORY        MOCLDY    40  11  30 NW8       30.22R WCI  34
RUTHERFORDTON  CLEAR     38  18  43 W6        30.24R WCI  34
MOUNT AIRY     NOT AVBL
BOONE          PTCLDY    30   8  39 NW10G21   30.14R WCI  21
$$

NCZ021-022-025-041-071-084-088-090100-
CENTRAL NORTH CAROLINA

CITY           SKY/WX    TMP DP  RH WIND       PRES   REMARKS
CHARLOTTE      CLOUDY    42  22  44 NW7       30.23R
GREENSBORO     CLOUDY    43  15  32 NW10G20   30.18R
WINSTON-SALEM  CLOUDY    42  10  27 NW8       30.21R
RALEIGH-DURHAM MOCLDY    43  21  41 CALM      30.19R
FORT BRAGG     CLOUDY    46  23  39 NW5       30.18R
FAYETTEVILLE   CLOUDY    48  24  39 NW7       30.19R
BURLINGTON     CLOUDY    43  19  38 W7        30.19R
LAURINBURG     MOCLDY    47  29  49 N6        30.20R
$$

NCZ011-015-027-028-043-044-047-080-103-090100-
NORTHEASTERN NORTH CAROLINA

CITY           SKY/WX    TMP DP  RH WIND       PRES   REMARKS
ROCKY MT-WILSO MOCLDY    46  22  38 NW7       30.18R
GREENVILLE     MOCLDY    46  27  46 NW6       30.17R
WASHINGTON     PTCLDY    46  28  49 NW7       30.15R
ELIZABETH CITY MOCLDY    46  34  62 W8        30.11R
MANTEO         PTCLDY    49  35  57 NW7       30.11R
CAPE HATTERAS  PTCLDY    50  38  63 NW12G22   30.10R
$$

NCZ078-087-090-091-093-098-101-090100-
SOUTHEASTERN NORTH CAROLINA

CITY           SKY/WX    TMP DP  RH WIND       PRES   REMARKS
LUMBERTON      CLOUDY    47  31  53 N3        30.19R
GOLDSBORO      CLOUDY    48  21  34 NW8       30.16R
KINSTON        CLOUDY    48  21  34 NW10      30.18R
KENANSVILLE    PTCLDY    48  30  49 NW3       30.17R
NEW BERN       PTCLDY    48  26  42 NW7       30.16R
CHERRY POINT   MOCLDY    49  28  44 NW12      30.15R
BEAUFORT       CLOUDY    50  33  52 NW8       30.14R
JACKSONVILLE   PTCLDY    47  29  49 NW7       30.16R
WILMINGTON     CLEAR     48  31  51 N9        30.17R
$$




USA.gov is the U.S. government's official web portal to all federal, state and local government web resources and services.